Regional Weather Roundup
Issued by NWS Sioux Falls, SD

Home | Current Version | Previous Version | Graphics & Text | Print | Product List | Glossary Off
Versions: 1 2 3 4 5 6 7 8 9 10 11 12 13 14 15 16 17 18 19 20 21 22 23 24 25 26 27 28 29 30 31 32 33 34 35 36 37 38 39 40 41 42 43 44 45 46 47 48 49 50

000
ASUS43 KFSD 301310
RWRFSD

WEATHER ROUNDUP FOR SE SOUTH DAKOTA/SW MINNESOTA/NW IOWA
NATIONAL WEATHER SERVICE SIOUX FALLS SD
800 AM CDT THU MAR 30 2017

NOTE: "FAIR" INDICATES FEW OR NO CLOUDS BELOW 12,000 FEET WITH NO
SIGNIFICANT WEATHER AND OR OBSTRUCTIONS TO VISIBILITY.


SDZ038>040-050-052>070-301400-
SOUTHEAST SOUTH DAKOTA

CITY           SKY/WX    TMP DP  RH WIND       PRES   REMARKS
BROOKINGS      CLOUDY    37  34  89 E16       29.86F
CHAMBERLAIN    CLOUDY    40  38  95 CALM      29.88R
HURON          CLOUDY    39  37  92 E7        29.88F
MADISON        CLOUDY    36  36 100 E14       29.86F
MITCHELL       CLOUDY    40  36  86 E9        29.88F
SIOUX FALLS    CLOUDY    39  38  96 NE14      29.85F
WINNER         CLOUDY    39  36  89 E6        29.86S
YANKTON        CLOUDY    39  36  87 N13       29.84S
$$

MNZ071-072-080-081-089-090-097-098-301400-
SOUTHWEST MINNESOTA

CITY           SKY/WX    TMP DP  RH WIND       PRES   REMARKS
FAIRMONT       CLOUDY    37  35  92 NE18      29.84S
JACKSON          N/A     36  36 100 NE15G24   29.85R FOG
LUVERNE        CLOUDY    36  34  93 NE12G18   29.86S
MARSHALL       CLOUDY    38  36  92 NE14      29.90S
MONTEVIDEO     CLOUDY    37  37 100 E8        29.92F
PIPESTONE      CLOUDY    37  34  87 E8G16     29.86S
REDWOOD FALLS  CLOUDY    39  36  89 NE8       29.90F
TRACY          CLOUDY    38  38  98 NE9       29.89S
WINDOM         CLOUDY    37  36  93 NE13G21   29.86S
WORTHINGTON    CLOUDY    36  35  96 NE15      29.85S
$$

IAZ001>003-012>014-020>022-031-032-NEZ013-014-SDZ071-301400-
NORTHWEST IOWA

CITY           SKY/WX    TMP DP  RH WIND       PRES   REMARKS
CHEROKEE       CLOUDY    37  37 100 NE12      29.81R
DENISON        MIX PCPN  39  39 100 NE15      29.76R
ESTHERVILLE    CLOUDY    36  36 100 NE20      29.82R
LE MARS        CLOUDY    39  37  93 NE13G20   29.83R
ORANGE CITY    CLOUDY    37  37 100 NE12G18   29.82S
SHELDON        CLOUDY    37  36  93 NE17      29.82R FOG
SIOUX CITY     CLOUDY    39  38  96 NE15G21   29.81R
SPENCER        CLOUDY    37  36  96 NE21      29.82R
STORM LAKE     CLOUDY    37  36  93 NE23      29.78R FOG
$$

ABBREVIATIONS USED IN REMARKS
   TC - TEMPERATURE IN CELSIUS
  WCI - WIND CHILL INDEX
   HX - HEAT INDEX
  VSB - VISIBILITY




USA.gov is the U.S. government's official web portal to all federal, state and local government web resources and services.